This is the latest recevied weather packets stored in our database for station/object KJ7HSW. If no packets are shown the sender has not sent any weather packets the latest 10 day(s).
| Time | Temp. | Humidity | Pressure | Rain* | Wind** | Luminosity | Snow |
|---|---|---|---|---|---|---|---|
| 1778084220 | 12.22° C | 87% | 1019 hPa | 0 mm | - | 115 W/m² | - |
| 1778083917 | 12.78° C | 88% | 1019.2 hPa | 0 mm | - | 110 W/m² | - |
| 1778083615 | 12.78° C | 87% | 1019.1 hPa | 0 mm | - | 93 W/m² | - |
| 1778083311 | 12.78° C | 88% | 1019.1 hPa | 0 mm | - | 83 W/m² | - |
| 1778083010 | 12.78° C | 89% | 1019.1 hPa | 0 mm | - | 119 W/m² | - |
| 1778082706 | 12.78° C | 89% | 1019 hPa | 0 mm | - | 85 W/m² | - |
| 1778081568 | 12.22° C | 89% | 1018.8 hPa | 0 mm | - | 85 W/m² | - |
| 1778081265 | 12.22° C | 89% | 1018.7 hPa | 0 mm | - | 79 W/m² | - |
| 1778080963 | 12.22° C | 89% | 1018.6 hPa | 0 mm | - | 74 W/m² | - |
| 1778080662 | 12.22° C | 89% | 1018.5 hPa | 0 mm | - | 83 W/m² | - |
| 1778080358 | 12.22° C | 90% | 1018.5 hPa | 0 mm | - | 81 W/m² | - |
| 1778080054 | 11.67° C | 91% | 1018.3 hPa | 0 mm | - | 66 W/m² | - |
| 1778079752 | 11.67° C | 91% | 1018.5 hPa | 0 mm | - | 70 W/m² | - |
| 1778079449 | 11.67° C | 91% | 1018.5 hPa | 0 mm | - | 59 W/m² | - |
| 1778079145 | 11.67° C | 91% | 1018.4 hPa | 0 mm | - | 58 W/m² | - |
| 1778078842 | 11.67° C | 91% | 1018.2 hPa | 0 mm | - | 43 W/m² | - |
| 1778078539 | 11.67° C | 92% | 1018.4 hPa | 0 mm | - | 47 W/m² | - |
| 1778078236 | 11.67° C | 91% | 1018.3 hPa | 0 mm | - | 54 W/m² | - |
| 1778077934 | 11.11° C | 92% | 1018.2 hPa | 0 mm | - | 55 W/m² | - |
| 1778077633 | 11.11° C | 92% | 1018.6 hPa | 0 mm | - | 42 W/m² | - |
| 1778077330 | 11.11° C | 93% | 1018.4 hPa | 0 mm | - | 55 W/m² | - |
| 1778077028 | 11.11° C | 93% | 1018.4 hPa | 0 mm | - | 67 W/m² | - |
| 1778076726 | 11.11° C | 94% | 1018.4 hPa | 0 mm | - | 51 W/m² | - |
| 1778076424 | 10.56° C | 94% | 1018.5 hPa | 0 mm | - | 44 W/m² | - |
| 1778076120 | 10.56° C | 94% | 1018.4 hPa | 0 mm | - | 43 W/m² | - |
* Rain latest hour (hover to see other rain measurements)
** Current wind speed in m/s (hover to see current wind gust speed)